Weather History for KBNO - January, 2013

Change the Weather History Date:

Tuesday, January 29, 2013

  Actual Average Record
Temperature  
Mean Temperature 35 °F 26 °F  
Max Temperature 41 °F 36 °F 53 °F (1992)
Min Temperature 29 °F 16 °F -18 °F (1957)
Degree Days  
Heating Degree Days 30 39  
Month to date heating degree days 1452 1167  
Since 1 July heating degree days 4342 4434  
Cooling Degree Days 0 0  
Month to date cooling degree days 0 0  
Year to date cooling degree days 0 0  
Moisture  
Dew Point 28 °F    
Average Humidity 75    
Maximum Humidity 85    
Minimum Humidity 64    
Precipitation  
Precipitation T in 0.04 in 0.28 in (2006)
Month to date precipitation 0.39 1.12  
Year to date precipitation 0.39 1.12  
Sea Level Pressure  
Sea Level Pressure 30.13 in    
Wind  
Wind Speed 12 mph (WSW)    
Max Wind Speed 23 mph    
Max Gust Speed 30 mph    
Visibility 7 miles    
Events Rain , Snow    
T = Trace of Precipitation, MM = Missing Value Source: NWS Daily Summary

Daily Weather History Graph

Daily Weather History Graph

Search for Another Location

Airport or City:

Trip Planner

Search our weather history database for the weather conditions in past years. The results will help you decide how hot, cold, wet, or windy it might be!

Date:

Astronomy

Jan. 29, 2013 Rise Set
Actual Time 7:15 AM PST 5:03 PM PST
Civil Twilight 6:44 AM PST 5:34 PM PST
Nautical Twilight 6:09 AM PST 6:08 PM PST
Astronomical Twilight 5:36 AM PST 6:42 PM PST
Moon 8:12 PM PST (1/29) 8:07 AM PST (1/29)
Length of Visible Light 10h 49m
Length of Day
9h 48m
Waning Gibbous, 93% of the Moon is Illuminated
Jan 29
Waning Gibbous
Feb 3
Last Quarter
Feb 9
New
Feb 17
First Quarter
Feb 25
Full

Hourly Weather History & Observations

Time (PST) Temp. Windchill Dew Point Humidity Pressure Visibility Wind Dir Wind Speed Gust Speed Precip Events Conditions
12:53 AM 30.9 °F 18.7 °F 27.0 °F 85% 29.99 in 3.0 mi West 19.6 mph - 0.00 in Snow Light Snow
1:13 AM 30.2 °F 17.1 °F 26.6 °F 86% 29.94 in 2.5 mi West 21.9 mph 27.6 mph 0.00 in Snow Light Snow
1:51 AM 30.2 °F 17.4 °F 26.6 °F 86% 29.94 in 1.8 mi West 20.7 mph 28.8 mph 0.00 in Snow Light Snow
1:53 AM 30.0 °F 16.9 °F 27.0 °F 88% 30.00 in 2.0 mi West 21.9 mph 28.8 mph 0.00 in Snow Light Snow
2:05 AM 30.2 °F 17.1 °F 26.6 °F 86% 29.95 in 3.0 mi West 21.9 mph 29.9 mph 0.00 in Snow Light Snow
2:21 AM 30.2 °F 17.1 °F 26.6 °F 86% 29.95 in 2.5 mi West 21.9 mph 27.6 mph 0.00 in Snow Light Snow
2:44 AM 30.2 °F 18.1 °F 26.6 °F 86% 29.95 in 2.5 mi West 18.4 mph 27.6 mph 0.00 in Snow Light Snow
2:53 AM 30.9 °F 19.1 °F 27.0 °F 85% 30.01 in 2.5 mi West 18.4 mph - 0.00 in Snow Light Snow
2:55 AM 30.2 °F 18.1 °F 26.6 °F 86% 29.95 in 3.0 mi West 18.4 mph - 0.00 in Snow Light Snow
3:09 AM 30.2 °F 17.4 °F 26.6 °F 86% 29.95 in 2.5 mi West 20.7 mph - 0.00 in Snow Light Snow
3:33 AM 30.2 °F 17.1 °F 26.6 °F 86% 29.95 in 4.0 mi West 21.9 mph 27.6 mph 0.00 in Snow Light Snow
3:44 AM 30.2 °F 17.4 °F 26.6 °F 86% 29.95 in 3.0 mi West 20.7 mph 27.6 mph 0.00 in Snow Light Snow
3:53 AM 30.9 °F 18.7 °F 27.0 °F 85% 30.02 in 3.0 mi West 19.6 mph 28.8 mph 0.00 in Snow Light Snow
4:10 AM 30.2 °F 18.1 °F 26.6 °F 86% 29.95 in 4.0 mi West 18.4 mph 28.8 mph 0.00 in Snow Light Snow
4:45 AM 30.2 °F 18.5 °F 26.6 °F 86% 29.97 in 4.0 mi West 17.3 mph 25.3 mph 0.00 in Snow Light Snow
4:53 AM 30.0 °F 18.3 °F 27.0 °F 88% 30.04 in 4.0 mi West 17.3 mph 23.0 mph 0.00 in Snow Light Snow
5:53 AM 30.0 °F 20.0 °F 27.0 °F 88% 30.06 in 4.0 mi West 12.7 mph - 0.00 in Snow Light Snow
6:53 AM 30.0 °F 23.2 °F 27.0 °F 88% 30.09 in 6.0 mi SW 6.9 mph - 0.00 in Snow Light Snow
7:05 AM 30.2 °F 22.6 °F 26.6 °F 86% 30.02 in 8.0 mi WSW 8.1 mph - 0.00 in Snow Light Snow
7:14 AM 30.2 °F 21.9 °F 26.6 °F 86% 30.03 in 8.0 mi SW 9.2 mph - 0.00 in Snow Light Snow
7:22 AM 30.2 °F 22.6 °F 26.6 °F 86% 30.03 in 8.0 mi SW 8.1 mph - 0.00 in Snow Light Snow
7:53 AM 30.0 °F 22.4 °F 27.0 °F 88% 30.11 in 8.0 mi SSW 8.1 mph - 0.00 in Snow Light Snow
8:02 AM 30.2 °F 24.3 °F 26.6 °F 86% 30.05 in 9.0 mi SSW 5.8 mph - 0.00 in   Overcast
8:20 AM 30.2 °F 23.4 °F 26.6 °F 86% 30.06 in 10.0 mi South 6.9 mph - 0.00 in   Overcast
8:51 AM 30.2 °F 22.6 °F 28.4 °F 93% 30.08 in 10.0 mi South 8.1 mph - 0.00 in   Overcast
8:53 AM 30.9 °F 23.5 °F 28.0 °F 89% 30.15 in 10.0 mi South 8.1 mph - 0.00 in   Overcast
9:24 AM 32.0 °F 23.6 °F 28.4 °F 87% 30.09 in 10.0 mi South 10.4 mph - N/A   Overcast
9:53 AM 34.0 °F 31.0 °F 28.0 °F 79% 30.18 in 10.0 mi South 3.5 mph - N/A   Overcast
10:53 AM 37.0 °F 28.9 °F 28.9 °F 73% 30.19 in 10.0 mi West 12.7 mph 18.4 mph N/A   Overcast
11:53 AM 37.9 °F 30.0 °F 28.9 °F 70% 30.21 in 10.0 mi West 12.7 mph - N/A   Overcast
12:53 PM 39.0 °F 31.4 °F 28.9 °F 67% 30.22 in 10.0 mi West 12.7 mph - N/A   Overcast
1:53 PM 39.0 °F 31.8 °F 30.0 °F 70% 30.24 in 10.0 mi West 11.5 mph - N/A   Overcast
2:53 PM 39.9 °F 33.9 °F 30.9 °F 70% 30.25 in 10.0 mi West 9.2 mph - N/A   Overcast
3:53 PM 37.0 °F 31.0 °F 30.0 °F 76% 30.28 in 10.0 mi West 8.1 mph - N/A   Mostly Cloudy
4:50 PM 35.6 °F 28.6 °F 30.2 °F 81% 30.24 in 10.0 mi WSW 9.2 mph - N/A   Overcast
4:53 PM 35.1 °F 27.4 °F 30.9 °F 85% 30.31 in 10.0 mi WSW 10.4 mph - N/A   Overcast
5:53 PM 35.1 °F 26.4 °F 30.9 °F 85% 30.32 in 10.0 mi WSW 12.7 mph - 0.00 in Rain Light Rain
6:32 PM 35.6 °F 27.1 °F 32.0 °F 87% 30.26 in 10.0 mi WSW 12.7 mph - 0.00 in   Overcast
6:53 PM 35.1 °F 26.9 °F 30.9 °F 85% 30.34 in 10.0 mi WSW 11.5 mph - 0.00 in   Overcast
7:53 PM 35.1 °F 27.9 °F 30.9 °F 85% 30.34 in 10.0 mi WSW 9.2 mph - N/A   Overcast
8:53 PM 35.1 °F 26.9 °F 30.9 °F 85% 30.34 in 10.0 mi SW 11.5 mph - N/A   Mostly Cloudy
9:03 PM 35.6 °F 28.6 °F 30.2 °F 81% 30.28 in 10.0 mi SW 9.2 mph - N/A   Mostly Cloudy
9:40 PM 35.6 °F 28.0 °F 30.2 °F 81% 30.28 in 10.0 mi SW 10.4 mph - N/A   Mostly Cloudy
9:53 PM 36.0 °F 29.6 °F 30.9 °F 82% 30.33 in 10.0 mi SW 8.1 mph - N/A   Overcast
10:53 PM 35.1 °F 28.6 °F 30.9 °F 85% 30.34 in 10.0 mi SW 8.1 mph - N/A   Overcast
11:05 PM 35.6 °F 29.2 °F 30.2 °F 81% 30.29 in 10.0 mi SSW 8.1 mph - N/A   Overcast
11:53 PM 33.1 °F 24.4 °F 30.0 °F 89% 30.33 in 10.0 mi SSW 11.5 mph - N/A   Partly Cloudy